Back to catalog

STARLINK-30963

AliveCommunicationsVLEO
NORAD 58444·PAYLOAD·🇺🇸 United States

Launched Nov 28, 2023 from Cape Canaveral Space Force Station

Loading…

Next Passes (next 24 hours)

TLE

FreshSource: CelesTrak SupGP

Epoch: Sep 14, 2026, 20:52 UTC

1 58444C 23183H   26257.86993056  .00049451  00000+0  17911-2 0  2570
2 58444  43.0045  52.9917 0001810 277.5190 301.5291 15.27552613    16

Track STARLINK-30963 in real time with AllMySat

Download on the App Store